map of NOV home
NOV - Airport
Location
City:  Huambo, Huambo, Angola
Name:Albano Machado
Old (Alt.):Nova Lisboa
ICAO:FNHU
IATA:NOV

Details
Type:Airport (Aerodrome, Airfield)
Latitude:1248'32"S (-12.808877)
Longitude:1545'38"E (15.760547)
Datum:WGS 1984
Elevation:5587 ft (1703 m)
Variation:4.28W (WMM2015v2 magnetic declination)
0.16 annual change
Runways:1
Longest:8727 × 148 ft (2660 × 45 m), paved

Time
Time Zone:UTC+1
Local Time:

Weather
METAR:FNHU 041300Z 15010KT 9999 SCT017 26/17 Q1018
TAF:FNHU 032245Z 0400/0412 VRB03KT 5000 RADZ BR SCT012 FEW016CB BKN020
BECMG 0406/0408 9999 NSW SCT015 BKN050 PROB30
TEMPO 0408/0412 09008KT 7000 -TSRA BKN020 FEW023CB

Related Locations
Nearby:
Farthest:PLPA: 11933 mi / 19204 km
Palmyra Island Atoll [Palmyra Airport (Cooper)], UM

Find:

   beyond  
but within

Other Information
Maps:
NOTAMs:
Links:
Sources:

  
  • flag of Angola
  

Sectional Chart

Flight Planning
at skyvector.com

Satellite Image

Google Maps Satellite view

 

Copyright © 2004-2019 Karl L. Swartz. All rights reserved.
The Great Circle Mapper name and logo are trademarks of the Great Circle Mapper.
All other trademarks mentioned herein belong to their respective owners.
Please see credits for attibutions and further copyright information.

  Follow gcmap on Facebook Follow gcmap on Twitter GCmap on LinkedIn

hCard Microformat

Geo Microformat